Location: Misciano
(43.5000°N, 11.9500°E)
Time: 10:38:15
(UTC+00:00)

Cosmos 1802 Rocket - Pass Details

Date: 13 August 2020
Orbit: 953 x 1012 km, 82.9° (Epoch: 20 September)

Event Time Altitude Azimuth Distance (km) Brightness Sun altitude
Exits shadow 21:45:24 46° 230° (SW) 1,321 4.5 -28.5°
Maximum altitude 21:47:01 59° 281° (W) 1,145 4.4 -28.6°
Drops below altitude 10° 21:53:18 10° 1° (N) 2,765 7.1 -29.1°
Sets 21:55:52 0° 5° (N) 3,709 7.9 -29.3°
